This is the latest recevied weather packets stored in our database for station/object OK1FET-5. If no packets are shown the sender has not sent any weather packets the latest 1 day(s).
| Time | Temp. | Humidity | Pressure | Rain* | Wind** | Luminosity | Snow |
|---|---|---|---|---|---|---|---|
| 1777968545 | 23.33° C | 44% | 1008.9 hPa | - | 2.24 m/s, 106° | - | - |
| 1777968250 | 22.78° C | 46% | 1008.9 hPa | - | 1.79 m/s, 105° | - | - |
| 1777967955 | 22.78° C | 45% | 1008.9 hPa | - | 1.79 m/s, 96° | - | - |
| 1777967660 | 23.33° C | 45% | 1008.9 hPa | - | 1.79 m/s, 111° | - | - |
| 1777967364 | 23.89° C | 45% | 1009 hPa | - | 2.24 m/s, 132° | - | - |
| 1777967069 | 25° C | 44% | 1009.1 hPa | - | 1.34 m/s, 148° | - | - |
| 1777966773 | 24.44° C | 46% | 1009.1 hPa | - | 1.34 m/s, 128° | - | - |
| 1777966478 | 23.89° C | 45% | 1009.1 hPa | - | 2.24 m/s, 96° | - | - |
| 1777966183 | 23.89° C | 45% | 1009.1 hPa | - | 1.79 m/s, 117° | - | - |
| 1777965887 | 23.33° C | 47% | 1009.1 hPa | - | 1.79 m/s, 118° | - | - |
| 1777965592 | 22.78° C | 46% | 1009.2 hPa | - | 1.79 m/s, 113° | - | - |
| 1777965297 | 23.33° C | 47% | 1009.2 hPa | - | 1.79 m/s, 122° | - | - |
| 1777965002 | 23.89° C | 46% | 1009.2 hPa | - | 1.79 m/s, 101° | - | - |
| 1777964706 | 23.89° C | 46% | 1009.3 hPa | - | 1.34 m/s, 140° | - | - |
| 1777964411 | 23.33° C | 47% | 1009.3 hPa | - | 1.34 m/s, 156° | - | - |
| 1777964116 | 23.33° C | 47% | 1009.3 hPa | - | 0.89 m/s, 136° | - | - |
| 1777963526 | 21.11° C | 50% | 1009.4 hPa | - | 0.89 m/s, 82° | - | - |
| 1777963231 | 19.44° C | 51% | 1009.4 hPa | - | 0.89 m/s, 47° | - | - |
| 1777962936 | 18.89° C | 52% | 1009.5 hPa | - | 0.89 m/s, 57° | - | - |
| 1777962641 | 18.89° C | 53% | 1009.5 hPa | - | 0.45 m/s, 357° | - | - |
| 1777962347 | 18.33° C | 55% | 1009.5 hPa | - | 0 m/s | - | - |
| 1777961757 | 17.22° C | 55% | 1009.5 hPa | - | 0.89 m/s, 71° | - | - |
| 1777961463 | 17.22° C | 56% | 1009.6 hPa | - | 0.89 m/s, 99° | - | - |
| 1777961168 | 16.67° C | 56% | 1009.7 hPa | - | 0.89 m/s, 111° | - | - |
| 1777960874 | 16.11° C | 57% | 1009.7 hPa | - | 0.45 m/s, 128° | - | - |
* Rain since midnight (hover to see other rain measurements)
** Current wind speed in m/s (hover to see current wind gust speed)